Location: Rounton
(54.4000°N, 1.3500°W)
Time: 14:46:00
(UTC+00:00)

Transit 4A - Pass Details

Date: 29 November 2021
Orbit: 864 x 981 km, 66.8° (Epoch: 20 January)

Event Time Altitude Azimuth Distance (km) Brightness Sun altitude
Rises 21:06:34 0° 216° (SW) 3,461 - -44.7°
Reaches altitude 10° 21:09:00 10° 216° (SW) 2,538 - -45.0°
Maximum altitude 21:14:53 84° 129° (SE) 912 - -45.7°
Drops below altitude 10° 21:21:00 10° 42° (NE) 2,628 - -46.4°
Sets 21:23:34 0° 42° (NE) 3,593 - -46.8°
